Flag for China Weather past 2 weeks in Nanning, Guangxi, China

Now
75 °F

Clear.


Feels Like: 75 °F
Forecast: 76 / 94 °F
Wind: 8 mph from Southeast

Location: Nanning Airport

Current Time: Apr 1, 2015 at 11:16:31 PM

Latest Report: Apr 1, 2015 at 10:00 PM


Visibility: 10 mi

Pressure: 29.68 "Hg

Humidity: 89%

Dew point: 72 °F

Location of NanningLocation

Historic Weather in Nanning — Graph

°F

Nanning temperature yesterday

Maximum temperature yesterday: 88 °F (at 2:00 PM)
Minimum temperature yesterday: 70 °F (at 4:00 AM)
Average temperature yesterday: 78 °F

Past Weeks' High & Low Weather Summary

 TemperatureHumidityPressure
High90 °F (Mar 18, 2:00 PM)100% (Mar 18, 1:00 AM)30.27 "Hg (Mar 18, 1:00 AM)
Low61 °F (Mar 22, 7:00 AM)52% (Mar 31, 4:00 PM)29.62 "Hg (Mar 18, 4:00 PM)
Average72 °F85%29.97 "Hg
* Reported Mar 17 10:00 PM — Apr 1 10:00 PM, Nanning, Weather by CustomWeather, © 2015

Note: Actual official high and low records may vary slightly from our data, if they occured in-between our weather recording intervals... More about our weather records

Advertising

Nanning weather history for previous 24 hours

 ConditionsComfort  
Time TempWeatherWind HumidityBarometerVisibility
10:00 PM
Wed, Apr 1
75 °FClear.8 mph89%29.68 "Hg10 mi
9:00 PM77 °FClear.3 mph83%29.68 "Hg10 mi
8:00 PM79 °FClear.8 mph79%29.65 "Hg10 mi
7:00 PM81 °FSunny.10 mph74%29.65 "Hg10 mi
6:00 PM84 °FPassing clouds.17 mph66%29.62 "HgN/A
5:00 PM84 °FPassing clouds.17 mph70%29.62 "HgN/A
4:00 PM86 °FPassing clouds.17 mph66%29.65 "HgN/A
3:00 PM88 °FPassing clouds.13 mph59%29.65 "HgN/A
2:00 PM90 °FScattered clouds.8 mph55%29.71 "HgN/A
1:00 PM88 °FScattered clouds.3 mph55%29.74 "HgN/A
12:00 PM86 °FPassing clouds.10 mph59%29.77 "HgN/A
11:00 AM82 °FPassing clouds.6 mph62%29.80 "HgN/A
10:00 AM79 °FPassing clouds.3 mph74%29.83 "HgN/A
9:00 AM75 °FSunny.1 mph83%29.80 "Hg10 mi
8:00 AM73 °FSunny.3 mph89%29.80 "Hg10 mi
7:00 AM72 °FSunny.3 mph94%29.77 "Hg10 mi
6:00 AM72 °FClear.3 mph94%29.77 "Hg10 mi
5:00 AM72 °FClear.6 mph94%29.77 "Hg10 mi
4:00 AM72 °FClear.1 mph94%29.74 "Hg10 mi
3:00 AM72 °FClear.1 mph94%29.74 "Hg10 mi
2:00 AM72 °FClear.3 mph94%29.77 "Hg10 mi
1:00 AM73 °FClear.1 mph89%29.77 "Hg10 mi
12:00 AM73 °FPassing clouds.3 mph89%29.80 "HgN/A
11:00 PM
Tue, Mar 31
75 °FClear.8 mph89%29.80 "Hg10 mi
Weather by CustomWeather, © 2015

See weather overviewHow to use our weather pages